Volver al catálogo

PTD-4

ActivoCienciaSSO
NORAD 60565·PAYLOAD·🇺🇸 United States

Lanzado Aug 16, 2024 desde Vandenberg Space Force Base

Loading…

Próximos Pases (próximas 24 horas)

TLE

ActualizadoSource: Space-Track

Época: Sep 13, 2026, 19:04 UTC

1 60565U 24149DB  26256.79449821  .00018019  00000-0  71572-3 0  9991
2 60565  97.6944 347.9557 0003548  97.2288 262.9352 15.25381432114312

Sigue PTD-4 en tiempo real con AllMySat

Download on the App Store